Regional Weather Roundup
Issued by NWS San Angelo, TX

Home | Current Version | Previous Version | Text Only | Print | Product List | Glossary On
Versions: 1 2 3 4 5 6 7 8 9 10 11 12 13 14 15 16 17 18 19 20 21 22 23 24 25 26 27 28 29 30 31 32 33 34 35 36 37 38 39 40 41 42 43 44 45 46 47 48 49 50
000
ASUS44 KSJT 270810
RWRSJT
WEST CENTRAL TEXAS REGIONAL WEATHER ROUNDUP
NATIONAL WEATHER SERVICE SAN ANGELO TX
300 AM CDT THU APR 27 2017

NOTE: "FAIR" INDICATES FEW OR NO CLOUDS BELOW 12,000 FEET WITH NO
SIGNIFICANT WEATHER AND/OR OBSTRUCTIONS TO VISIBILITY.

TXZ049-054-064>066-071>073-076>078-098-099-113-114-127-128-139-140-
154-155-168>170-270900
...LOCATIONS ACROSS WEST CENTRAL TEXAS...

CITY           SKY/WX    TMP DP  RH WIND       PRES   REMARKS
SAN ANGELO     CLEAR     53  38  56 S8        29.77S
ABILENE        CLOUDY    48  41  76 S6        29.75S
DYESS AFB      PTCLDY    45  39  80 CALM      29.73F
JUNCTION       CLEAR     51  40  65 CALM      29.79F
SWEETWATER     CLEAR     50  39  64 SE10      29.76F
BROWNWOOD      CLEAR     45  41  87 SW5       29.75R
COLEMAN        SUNNY     45  40  81 CALM      29.74F
SONORA         CLEAR     52  39  62 CALM      29.84F
OZONA            N/A     50  36  57 CALM      29.81F
BRADY          NOT AVBL
$$

TEXAS PANHANDLE/OKLAHOMA PANHANDLE

CITY           SKY/WX    TMP DP  RH WIND       PRES   REMARKS
AMARILLO       PTCLDY    47  35  63 SE14      29.75F
BORGER         CLOUDY    52  34  50 S12       29.73F
CANADIAN       PTCLDY    43  39  85 SW3       29.73F
DALHART        CLOUDY    47  37  68 SE8       29.74F
DUMAS          CLOUDY    44  35  70 SE5       29.73F
GUYMON         NOT AVBL
HEREFORD       CLOUDY    50  41  71 SE5       29.77F
PAMPA          MOSUNNY   45  37  74 S8        29.74F
PERRYTON       PTCLDY    47  41  80 S6        29.71F
$$

SOUTHERN PANHANDLE/SOUTH PLAINS/ROLLING PLAINS

CITY           SKY/WX    TMP DP  RH WIND       PRES   REMARKS
LUBBOCK        PTCLDY    46  36  68 E7        29.73F
SNYDER         CLEAR    N/A N/A N/A CALM      29.74S
CHILDRESS      MOCLDY    50  37  61 SE6       29.75F
SEMINOLE       SUNNY     51  33  51 CALM      29.73F
$$

PERMIAN BASIN

CITY           SKY/WX    TMP DP  RH WIND       PRES   REMARKS
MIDLAND        CLEAR     58  32  37 S14       29.74F
ODESSA         CLEAR     59  30  33 S13       29.75F
WINK           CLEAR     57  33  40 SE12      29.71F
$$

FAR WEST/SOUTHWEST MOUNTAINS/TRANS PECOS

CITY           SKY/WX    TMP DP  RH WIND       PRES   REMARKS
ALPINE         MOSUNNY   59  21  22 S5        29.89S
DRYDEN           N/A     59  33  37 VRB3      29.78F
EL PASO        PTCLDY    71  20  14 W16G30    29.78S
FORT STOCKTON  CLEAR     61  31  32 S17G24    29.75F
GUADALUPE PASS CLEAR     63  18  17 W37G47    29.79F
MARFA          CLOUDY    47  19  33 N3        29.88F
PECOS          SUNNY     52  30  42 E5        29.70F
$$

DALLAS/FORT WORTH METROPLEX

CITY           SKY/WX    TMP DP  RH WIND       PRES   REMARKS
DFW AIRPORT    PTCLDY    52  47  83 S3        29.75F
FTW MEACHAM    PTCLDY    51  46  83 CALM      29.76F
DAL-EXECUTIVE  CLEAR     47  46  97 S3        29.76F
GRAND PRAIRIE  CLEAR     51  46  83 CALM      29.79F
ADDISON        CLEAR     51  46  83 CALM      29.78F
MESQUITE       SUNNY     46  46  99 CALM      29.79F
LANCASTER      SUNNY     43  42  97 CALM      29.79F
$$

NORTH CENTRAL TEXAS

CITY           SKY/WX    TMP DP  RH WIND       PRES   REMARKS
SHRMAN/DENISON SUNNY     42  42  97 CALM      29.78F
GAINESVILLE    NOT AVBL
BRIDGEPORT     MOSUNNY   42  42 100 CALM      29.78F
DENTON         PTCLDY    42  42 100 CALM      29.77F
WAXAHACHIE     SUNNY     45  45 100 CALM      29.79F
GRANBURY       SUNNY     45  41  88 CALM      29.78F
$$

WESTERN NORTH TEXAS

CITY           SKY/WX    TMP DP  RH WIND       PRES   REMARKS
WICHITA FALLS  CLOUDY    47  39  74 S3        29.75F
VERNON         MOSUNNY   49  39  66 CALM      29.76F
BRECKENRIDGE   SUNNY     48  40  76 S8        29.75R
COMANCHE       CLEAR     46  46  97 SE5       29.76F
$$

CENTRAL AND SOUTH CENTRAL TEXAS

CITY           SKY/WX    TMP DP  RH WIND       PRES   REMARKS
AUSTIN/BERGSTM CLEAR     50  46  86 N3        29.77F
WACO           CLEAR     46  45  96 CALM      29.78F
HILLSBORO      SUNNY     47  44  90 E5        29.78F
TEMPLE         CLEAR     49  46  90 NE7       29.77F
KILLEEN-GRAY   CLEAR     53  45  74 S6        29.74F
FORT HOOD      CLEAR     53  44  71 NE9       29.71F
GEORGETOWN     CLEAR     54  43  66 CALM      29.78F
LAGO VISTA     FAIR      54  45  71 E5        29.78S
SAN MARCOS     CLEAR     55  45  67 NE3       29.79S
NEW BRAUNFELS  CLEAR     56  47  71 CALM      29.77F
RANDOLPH AFB   CLEAR     56  48  74 NE6       29.78S
SAN ANTONIO    CLEAR     59  44  57 SW3       29.79S
STINSON        CLEAR     59  46  62 SE3       29.77S
PLEASANTON     NOT AVBL
LA GRANGE      NOT AVBL
GIDDINGS       SUNNY     54  47  78 CALM      29.78F
$$

EAST TEXAS

CITY           SKY/WX    TMP DP  RH WIND       PRES   REMARKS
PARIS          CLEAR     45  43  93 CALM      29.78S
CLARKSVILLE    NOT AVBL
TYLER          CLEAR     47  47 100 S3        29.79F
LONGVIEW       CLEAR     48  48 100 CALM      29.77F
PALESTINE      SUNNY     47  47 100 CALM      29.79F
NACOGDOCHES    CLEAR     46  45  93 CALM      29.76F
$$

TEXAS HILL COUNTRY AND EDWARDS PLATEAU

CITY           SKY/WX    TMP DP  RH WIND       PRES   REMARKS
LLANO          SUNNY     48  43  81 CALM      29.81S
HORSESHOE BAY  FAIR      53  45  75 CALM      29.78F
KERRVILLE      CLEAR     49  44  83 N3        29.81S
FREDERICKSBRG  CLEAR     48  42  79 W3        29.80S
ROCKSPRINGS    SUNNY     54  39  58 CALM      29.82F
HONDO          CLEAR     55  45  68 NE3       29.80R
UVALDE         SUNNY     54  45  71 NE6       29.78F
DEL RIO        CLEAR     59  42  53 CALM      29.77R
$$

SOUTHEAST TEXAS

CITY           SKY/WX    TMP DP  RH WIND       PRES   REMARKS
COLLEGE STN    CLEAR     57  47  69 NE8       29.77F
CALDWELL       NOT AVBL
CROCKETT       SUNNY     48  46  93 CALM      29.81F
BRENHAM        CLEAR     56  49  76 CALM      29.79S
HUNTSVILLE     CLEAR     54  48  80 E3        29.78F
CONROE         CLEAR     54  50  86 SE3       29.79S
HOUSTON BUSH   PTCLDY    59  51  75 NE8       29.78F
HOUSTON HOBBY  CLEAR     61  50  67 N15       29.78F
PERLAND        CLEAR     64  50  60 N12       29.78F
WHARTON        SUNNY     58  47  67 N6        29.79S
$$

THE UPPER TEXAS COAST

CITY           SKY/WX    TMP DP  RH WIND       PRES   REMARKS
ORANGE         MOSUNNY   56  52  84 N5        29.80S
PORT ARTHUR    CLEAR     58  48  69 N16G25    29.77F
GALVESTON      PTCLDY    66  56  70 N22G29    29.77F
ANGLETON       CLEAR     63  54  72 NE6       29.77R
BAY CITY       SUNNY     63  51  64 N7        29.78R
$$

TEXAS COASTAL BEND, RIO GRANDE PLAINS DEEP SOUTH TEXAS

CITY           SKY/WX    TMP DP  RH WIND       PRES   REMARKS
VICTORIA       CLEAR     61  51  70 NE7       29.79S
BEEVILLE       FAIR      65  54  67 NE7       29.79R
ROCKPORT       CLEAR     68  52  56 NE16      29.77S
PORT ARANSAS   SUNNY     69  53  55 NE18G24   29.76F
PORT LAVACA    SUNNY     63  55  74 NE9       29.79R
CORPUS CHRISTI CLEAR     69  54  58 NE23      29.75F
KINGSVILLE NAS CLEAR     67  55  65 NE7       29.76R
COTULLA        CLEAR     68  45  43 E8        29.75F
LAREDO         CLEAR     69  45  41 E14       29.75F
BROWNSVILLE    CLEAR     75  70  84 N5        29.70S
PORT ISABEL    CLEAR     77  71  82 NE9       29.70R
HEBBRONVILLE   SUNNY     64  44  47 E6        29.78S
MCALLEN        CLEAR     73  66  78 N5        29.72R
WESLACO        CLEAR     70  67  92 NW3       29.71S FOG
FALFURRIAS     SUNNY     70  50  48 NE8       29.75S
EDINBURG       SUNNY     72  62  71 NE9       29.73R
$$



USA.gov is the U.S. government's official web portal to all federal, state and local government web resources and services.